Stations météo

réclame
Mon MeteoGroup
La Coruna, Espagne (8001): Température de l'air & dewpoint: 11.01.2019 01:00:00 - 17.01.2019 01:00:00 (CET)La Coruna, Espagne (8001): Vitesse du vent: 11.01.2019 01:00:00 - 17.01.2019 01:00:00 (CET)La Coruna, Espagne (8001): Direction du vent: 11.01.2019 01:00:00 - 17.01.2019 01:00:00 (CET)La Coruna, Espagne (8001): reduced air pressure: 11.01.2019 01:00:00 - 17.01.2019 01:00:00 (CET)La Coruna, Espagne (8001): visibility: 11.01.2019 01:00:00 - 17.01.2019 01:00:00 (CET)La Coruna, Espagne (8001): Quantités de précipitations: 11.01.2019 01:00:00 - 17.01.2019 01:00:00 (CET)
Date & Time tt [°C] td [°C] ff [km/h] ff [knt] dd ppp [hPa] vv [km] rr [mm]
17.01.2019 01:00:00 10,6 4,5 15 8 N 1021,7 15 -
17.01.2019 00:00:00 10,8 5,3 13 7 NNW 1021,5 20 0,0
16.01.2019 23:00:00 11,0 6,3 11 6 N 1021,1 20 0,0
16.01.2019 22:00:00 10,9 6,6 16 9 N 1020,9 15 -
16.01.2019 21:00:00 10,8 7,3 15 8 NNW 1020,4 17 0,0
16.01.2019 20:00:00 10,7 8,3 18 10 N 1019,8 18 0,4
16.01.2019 19:00:00 10,4 9,0 13 7 NNW 1019,0 19 -
16.01.2019 18:00:00 10,3 9,7 13 7 NW 1018,2 2,6 1,0
16.01.2019 17:00:00 12,5 8,8 13 7 W 1017,7 20 0,0
16.01.2019 16:00:00 12,8 8,5 15 8 W 1017,4 20 -
16.01.2019 15:00:00 12,7 8,6 15 8 W 1017,4 20 0,0
16.01.2019 14:00:00 12,3 8,0 13 7 SW 1017,6 20 0,0
16.01.2019 13:00:00 11,5 9,6 13 7 WSW 1018,3 25 -
16.01.2019 12:00:00 10,6 9,7 13 7 SW 1018,7 11 0,6
16.01.2019 11:00:00 10,5 9,6 15 8 SW 1018,3 18 0,0
16.01.2019 10:00:00 10,5 8,8 11 6 WSW 1017,9 4,0 -
16.01.2019 09:00:00 10,2 8,8 15 8 SW 1017,6 19 0,2
16.01.2019 08:00:00 10,3 9,1 9 5 WSW 1017,6 3,8 0,2
16.01.2019 07:00:00 10,5 8,4 16 9 SW 1017,3 20 -
16.01.2019 06:00:00 11,6 7,9 11 6 SW 1017,3 20 0,0
16.01.2019 05:00:00 11,7 7,8 13 7 SW 1017,6 19 0,0
16.01.2019 04:00:00 11,7 7,6 16 9 SSW 1017,6 20 -
16.01.2019 03:00:00 11,3 7,6 9 5 S 1017,9 19 0,0
16.01.2019 02:00:00 11,0 8,0 5 3 S 1018,3 13 0,0
16.01.2019 01:00:00 10,7 7,8 5 3 SSE 1018,6 15 -
16.01.2019 00:00:00 10,1 7,3 8 4 SSE 1019,1 11 0,0
15.01.2019 23:00:00 9,6 7,0 5 3 SSW 1019,5 11 0,0
15.01.2019 22:00:00 9,9 7,0 11 6 S 1019,7 20 -
15.01.2019 21:00:00 10,4 7,6 9 5 S 1019,6 15 0,0
15.01.2019 20:00:00 10,5 7,9 2 1 S 1019,4 14 0,0
15.01.2019 19:00:00 10,8 7,7 2 1 W 1019,1 18 -
15.01.2019 18:00:00 11,3 7,4 5 3 W 1019,0 19 0,0
15.01.2019 17:00:00 12,2 6,9 4 2 W 1019,0 19 0,0
15.01.2019 16:00:00 12,6 5,5 5 3 WNW 1019,2 20 -
15.01.2019 15:00:00 14,1 4,7 8 4 W 1019,4 20 0,0
15.01.2019 14:00:00 13,7 6,5 2 1 NNW 1020,0 17 0,0
15.01.2019 13:00:00 12,2 5,8 5 3 E 1020,9 18 -
15.01.2019 12:00:00 10,6 5,6 8 4 SSE 1021,6 18 0,0
15.01.2019 11:00:00 8,3 4,9 5 3 SSE 1021,7 16 0,0
15.01.2019 10:00:00 6,7 4,5 8 4 SSE 1021,5 15 -
15.01.2019 09:00:00 6,5 4,5 8 4 SE 1021,4 14 0,0
15.01.2019 08:00:00 6,7 4,9 8 4 SE 1021,4 16 0,0
15.01.2019 07:00:00 6,4 4,6 8 4 SE 1021,4 20 -
15.01.2019 06:00:00 6,7 4,9 8 4 SE 1021,8 15 0,0
15.01.2019 05:00:00 6,9 4,9 8 4 SE 1022,3 20 0,0
15.01.2019 04:00:00 7,0 5,0 8 4 ESE 1022,9 20 -
15.01.2019 03:00:00 6,9 4,9 8 4 ESE 1023,1 20 0,0
15.01.2019 02:00:00 7,4 5,2 5 3 ESE 1023,7 20 0,0
15.01.2019 01:00:00 7,8 5,8 5 3 SE 1024,2 20 -
15.01.2019 00:00:00 8,5 6,3 5 3 E 1024,5 20 0,0
14.01.2019 23:00:00 9,3 6,7 5 3 E 1024,5 20 0,0
14.01.2019 22:00:00 9,6 6,7 9 5 E 1024,5 20 -
14.01.2019 21:00:00 10,0 7,1 13 7 ENE 1024,8 20 0,0
14.01.2019 20:00:00 10,6 7,1 16 9 ENE 1025,0 20 0,0
14.01.2019 19:00:00 11,1 7,0 21 11 NE 1024,9 20 -
14.01.2019 18:00:00 11,6 7,7 16 9 NE 1024,9 20 0,0
14.01.2019 17:00:00 12,2 7,9 15 8 NE 1025,2 20 0,0
14.01.2019 16:00:00 12,5 7,2 13 7 NNE 1025,4 20 -
14.01.2019 15:00:00 12,8 8,1 11 6 NNE 1026,2 20 0,0
14.01.2019 14:00:00 12,4 8,1 15 8 NE 1027,0 20 0,0
14.01.2019 13:00:00 11,8 8,5 11 6 ENE 1027,9 25 -
14.01.2019 12:00:00 11,6 8,3 13 7 E 1028,7 20 0,0
14.01.2019 11:00:00 11,2 8,6 9 5 E 1028,8 20 0,0
14.01.2019 10:00:00 10,5 8,4 9 5 E 1028,6 25 -
14.01.2019 09:00:00 10,4 8,3 5 3 E 1028,5 18 0,0
14.01.2019 08:00:00 10,6 7,7 4 2 E 1028,4 20 0,0
14.01.2019 07:00:00 10,8 7,7 5 3 E 1028,4 15 -
14.01.2019 06:00:00 10,8 7,8 8 4 ENE 1028,8 20 0,0
14.01.2019 05:00:00 10,8 8,4 8 4 E 1029,3 20 0,0
14.01.2019 04:00:00 10,9 8,1 8 4 E 1029,7 15 -
14.01.2019 03:00:00 10,8 8,0 8 4 E 1029,9 20 0,0
14.01.2019 02:00:00 10,8 8,2 4 2 E 1030,0 20 0,0
14.01.2019 01:00:00 10,9 8,1 5 3 E 1030,5 15 -
14.01.2019 00:00:00 11,0 7,7 8 4 E 1030,9 20 0,0
13.01.2019 23:00:00 11,1 7,6 4 2 SSE 1031,1 20 0,0
13.01.2019 22:00:00 11,1 7,8 4 2 ESE 1031,2 15 -
13.01.2019 21:00:00 11,2 7,9 8 4 ENE 1031,3 20 0,0
13.01.2019 20:00:00 11,5 7,2 11 6 NE 1031,4 20 0,0
13.01.2019 19:00:00 11,6 7,1 18 10 NE 1031,3 20 -
13.01.2019 18:00:00 11,5 9,1 13 7 N 1031,3 20 0,0
13.01.2019 17:00:00 11,6 9,2 11 6 NNE 1031,2 20 0,0
13.01.2019 16:00:00 11,6 9,5 15 8 N 1031,4 20 -
13.01.2019 15:00:00 11,5 8,5 4 2 N 1031,7 20 0,0
13.01.2019 14:00:00 12,1 8,4 5 3 NE 1032,5 20 0,0
13.01.2019 13:00:00 11,7 7,0 9 5 NE 1033,4 20 -
13.01.2019 12:00:00 11,1 5,8 4 2 ESE 1034,3 20 0,0
13.01.2019 11:00:00 10,5 5,7 5 3 ESE 1034,4 20 0,0
13.01.2019 10:00:00 10,0 5,2 8 4 ESE 1034,1 23 -
13.01.2019 09:00:00 9,6 4,8 8 4 ESE 1033,9 20 0,0
13.01.2019 08:00:00 9,4 5,2 8 4 ESE 1033,9 20 0,0
13.01.2019 07:00:00 9,3 4,9 11 6 E 1033,6 15 -
13.01.2019 06:00:00 9,4 4,8 11 6 E 1033,6 20 0,0
13.01.2019 05:00:00 9,9 5,1 13 7 NE 1034,1 20 0,0
13.01.2019 04:00:00 10,0 4,8 18 10 NE 1034,2 15 -
13.01.2019 03:00:00 10,3 5,3 16 9 NE 1034,2 20 0,0
13.01.2019 02:00:00 10,6 4,9 18 10 ENE 1034,3 20 0,0
13.01.2019 01:00:00 10,9 5,6 18 10 ENE 1034,8 15 -
13.01.2019 00:00:00 10,9 5,6 18 10 ENE 1035,0 20 0,0
12.01.2019 23:00:00 10,9 5,6 18 10 ENE 1035,2 20 0,0
12.01.2019 22:00:00 10,8 6,2 15 8 NE 1035,2 20 -
12.01.2019 21:00:00 10,7 5,4 16 9 ENE 1035,0 20 0,0
12.01.2019 20:00:00 10,7 5,7 15 8 NE 1034,7 20 0,0
12.01.2019 19:00:00 10,9 5,8 18 10 ENE 1034,6 20 -
12.01.2019 18:00:00 11,0 5,1 21 11 NE 1034,2 20 0,0
12.01.2019 17:00:00 11,1 5,6 21 11 ENE 1034,3 20 0,0
12.01.2019 16:00:00 10,9 6,6 21 11 NE 1034,2 20 -
12.01.2019 15:00:00 11,0 7,1 18 10 ENE 1034,1 20 0,0
12.01.2019 14:00:00 10,7 7,0 24 13 NE 1034,6 20 0,0
12.01.2019 13:00:00 10,4 6,9 18 10 NE 1035,2 22 -
12.01.2019 12:00:00 10,1 6,6 9 5 E 1035,4 20 0,0
12.01.2019 11:00:00 9,0 5,9 9 5 E 1035,3 20 0,0
12.01.2019 10:00:00 7,6 5,6 8 4 E 1034,7 20 -
12.01.2019 09:00:00 7,3 4,8 4 2 NNE 1034,2 20 0,0
12.01.2019 08:00:00 7,4 4,9 8 4 E 1033,7 20 0,0
12.01.2019 07:00:00 7,9 5,0 9 5 E 1033,3 14 -
12.01.2019 06:00:00 7,7 5,0 11 6 E 1033,9 20 0,0
12.01.2019 05:00:00 7,3 4,6 9 5 E 1034,3 20 0,0
12.01.2019 04:00:00 7,6 4,5 11 6 ENE 1034,4 12 -
12.01.2019 03:00:00 8,4 4,6 15 8 ENE 1033,8 20 0,0
12.01.2019 02:00:00 8,3 4,5 13 7 ENE 1033,9 20 0,0
12.01.2019 01:00:00 8,4 4,2 11 6 ENE 1033,8 14 -
12.01.2019 00:00:00 8,8 4,0 9 5 E 1033,8 20 0,0
11.01.2019 23:00:00 9,1 3,9 15 8 ENE 1033,9 20 0,0
11.01.2019 22:00:00 9,1 4,1 16 9 ENE 1033,4 15 -
11.01.2019 21:00:00 9,1 4,3 18 10 ENE 1033,1 20 0,0
11.01.2019 20:00:00 9,2 4,0 22 12 ENE 1032,7 20 0,0
11.01.2019 19:00:00 9,6 4,4 18 10 ENE 1032,1 20 -
11.01.2019 18:00:00 10,1 4,7 21 11 ENE 1031,5 20 0,0
11.01.2019 17:00:00 10,7 4,4 26 14 NE 1031,2 20 0,0
11.01.2019 16:00:00 11,1 4,1 26 14 NE 1030,9 20 -
11.01.2019 15:00:00 11,7 4,2 26 14 NE 1030,8 20 0,0
11.01.2019 14:00:00 11,9 3,4 22 12 NE 1031,1 20 0,0
11.01.2019 13:00:00 11,6 2,9 21 11 NE 1031,5 25 -
11.01.2019 12:00:00 10,6 2,7 18 10 ENE 1031,8 20 0,0
11.01.2019 11:00:00 8,8 1,9 16 9 ENE 1031,5 20 0,0
11.01.2019 10:00:00 7,5 1,8 15 8 ENE 1030,8 25 -
11.01.2019 09:00:00 7,5 1,3 16 9 E 1030,0 20 0,0
11.01.2019 08:00:00 7,5 0,7 16 9 ENE 1029,4 20 0,0
11.01.2019 07:00:00 7,4 -0,3 16 9 ENE 1028,9 15 -
11.01.2019 06:00:00 7,8 0,3 18 10 ENE 1028,8 20 0,0
11.01.2019 05:00:00 7,6 0,1 15 8 ENE 1029,0 20 0,0
11.01.2019 04:00:00 7,6 0,6 13 7 ENE 1028,8 15 -
11.01.2019 03:00:00 8,1 0,8 24 13 ENE 1028,5 20 0,0
11.01.2019 02:00:00 8,1 0,6 21 11 ENE 1028,4 20 0,0
11.01.2019 01:00:00 8,2 1,6 24 13 ENE 1028,3 15 -

tt = Température de l'air
td = dewpoint
ff = Vitesse du vent
dd = Direction du vent
ppp = reduced air pressure
vv = visibility
rr = Quantités de précipitations

stations d'obs. à proximité